Location: Boleita
(10.4833°N, 66.8167°W)
Time: 04:22:32
(UTC+00:00)

Centaur D AC-29 - Pass Details

Date: 03 August 2024
Orbit: 555 x 36261 km, 26.5° (Epoch: 08 September)

Event Time Altitude Azimuth Distance (km) Brightness Sun altitude
Rises 22:34:28 0° 309° (NW) 3,242 6.3 2.8°
Reaches altitude 10° 22:36:05 10° 318° (NW) 2,670 5.5 2.5°
Maximum altitude 22:41:46 44° 33° (NNE) 2,450 4.0 1.1°
Enters shadow 23:25:55 - 104° (ESE) 16,610 7.6 -9.2°
Exits shadow 00:48:46 - 113° (ESE) 31,013 9.1 -28.0°
Drops below altitude 10° 08:27:19 10° 117° (ESE) 15,023 8.5 -26.0°
Sets 08:39:03 0° 110° (ESE) 13,102 8.5 -23.4°
